Location: The Saddle
(36.8333°N, 80.3417°W)
Time: 01:55:44
(UTC-05:00)

A-11 Canister half - Pass Details

Date: 17 December 2023
Orbit: 1526 x 1682 km, 47.3° (Epoch: 01 March)

Event Time Altitude Azimuth Distance (km) Brightness Sun altitude
Rises 18:46:15 0° 281° (WNW) 4,917 12.8 -19.2°
Reaches altitude 10° 18:49:38 10° 288° (WNW) 3,938 12.0 -19.9°
Maximum altitude 18:59:18 46° 360° (N) 2,141 9.6 -21.8°
Enters shadow 19:03:58 30° 52° (NE) 2,673 9.7 -22.7°
